Year,Month,Day,Hour,Minute,Value (Times are PST for temperature in C)
2013,08,19,00,00,14.70
2013,08,19,00,01,14.70
2013,08,19,00,02,14.70
2013,08,19,00,03,14.70
2013,08,19,00,04,14.60
2013,08,19,00,05,14.60
2013,08,19,00,06,14.60
2013,08,19,00,07,14.60
2013,08,19,00,08,14.60
2013,08,19,00,09,14.60
2013,08,19,00,10,14.50
2013,08,19,00,11,14.50
2013,08,19,00,12,14.50
2013,08,19,00,13,14.40
2013,08,19,00,14,14.40
2013,08,19,00,15,14.40
2013,08,19,00,16,14.40
2013,08,19,00,17,14.40
2013,08,19,00,18,14.40
2013,08,19,00,19,14.40
2013,08,19,00,20,14.40
2013,08,19,00,21,14.40
2013,08,19,00,22,14.40
2013,08,19,00,23,14.40
2013,08,19,00,24,14.40
2013,08,19,00,25,14.40
2013,08,19,00,26,14.40
2013,08,19,00,27,14.40
2013,08,19,00,28,14.40
2013,08,19,00,29,14.40
2013,08,19,00,30,14.40
2013,08,19,00,31,14.40
2013,08,19,00,32,14.40
2013,08,19,00,33,14.40
2013,08,19,00,34,14.40
2013,08,19,00,35,14.40
2013,08,19,00,36,14.40
2013,08,19,00,37,14.40
2013,08,19,00,38,14.30
2013,08,19,00,39,14.30
2013,08,19,00,40,14.30
2013,08,19,00,41,14.30
2013,08,19,00,42,14.30
2013,08,19,00,43,14.30
2013,08,19,00,44,14.20
2013,08,19,00,45,14.20
2013,08,19,00,46,14.20
2013,08,19,00,47,14.20
2013,08,19,00,48,14.20
2013,08,19,00,49,14.20
2013,08,19,00,50,14.20
2013,08,19,00,51,14.20
2013,08,19,00,52,14.20
2013,08,19,00,53,14.20
2013,08,19,00,54,14.20
2013,08,19,00,55,14.20
2013,08,19,00,56,14.20
2013,08,19,00,57,14.30
2013,08,19,00,58,14.30
2013,08,19,00,59,14.30
2013,08,19,01,00,14.30
2013,08,19,01,01,14.20
2013,08,19,01,02,14.20
2013,08,19,01,03,14.20
2013,08,19,01,04,14.20
2013,08,19,01,05,14.20
2013,08,19,01,06,14.20
2013,08,19,01,07,14.20
2013,08,19,01,08,14.20
2013,08,19,01,09,14.20
2013,08,19,01,10,14.20
2013,08,19,01,11,14.20
2013,08,19,01,12,14.20
2013,08,19,01,13,14.20
2013,08,19,01,14,14.20
2013,08,19,01,15,14.20
2013,08,19,01,16,14.20
2013,08,19,01,17,14.10
2013,08,19,01,18,14.10
2013,08,19,01,19,14.10
2013,08,19,01,20,14.10
2013,08,19,01,21,14.10
2013,08,19,01,22,14.10
2013,08,19,01,23,14.10
2013,08,19,01,24,14.10
2013,08,19,01,25,14.10
2013,08,19,01,26,14.10
2013,08,19,01,27,14.10
2013,08,19,01,28,14.10
2013,08,19,01,29,14.10
2013,08,19,01,30,14.10
2013,08,19,01,31,14.00
2013,08,19,01,32,14.00
2013,08,19,01,33,14.00
2013,08,19,01,34,13.90
2013,08,19,01,35,13.90
2013,08,19,01,36,13.90
2013,08,19,01,37,14.00
2013,08,19,01,38,14.00
2013,08,19,01,39,14.00
2013,08,19,01,40,14.10
2013,08,19,01,41,14.10
2013,08,19,01,42,14.10
2013,08,19,01,43,14.10
2013,08,19,01,44,14.20
2013,08,19,01,45,14.20
2013,08,19,01,46,14.20
2013,08,19,01,47,14.20
2013,08,19,01,48,14.30
2013,08,19,01,49,14.30
2013,08,19,01,50,14.30
2013,08,19,01,51,14.30
2013,08,19,01,52,14.30
2013,08,19,01,53,14.30
2013,08,19,01,54,14.30
2013,08,19,01,55,14.40
2013,08,19,01,56,14.40
2013,08,19,01,57,14.40
2013,08,19,01,58,14.40
2013,08,19,01,59,14.50
2013,08,19,02,00,14.60
2013,08,19,02,01,14.60
2013,08,19,02,02,14.70
2013,08,19,02,03,14.70
2013,08,19,02,04,14.80
2013,08,19,02,05,14.80
2013,08,19,02,06,14.80
2013,08,19,02,07,14.70
2013,08,19,02,08,14.70
2013,08,19,02,09,14.70
2013,08,19,02,10,14.80
2013,08,19,02,11,14.80
2013,08,19,02,12,14.80
2013,08,19,02,13,14.90
2013,08,19,02,14,14.90
2013,08,19,02,15,15.00
2013,08,19,02,16,15.00
2013,08,19,02,17,15.00
2013,08,19,02,18,15.00
2013,08,19,02,19,15.00
2013,08,19,02,20,15.00
2013,08,19,02,21,15.00
2013,08,19,02,22,15.00
2013,08,19,02,23,15.00
2013,08,19,02,24,14.90
2013,08,19,02,25,14.90
2013,08,19,02,26,14.80
2013,08,19,02,27,14.80
2013,08,19,02,28,14.80
2013,08,19,02,29,14.80
2013,08,19,02,30,14.80
2013,08,19,02,31,14.70
2013,08,19,02,32,14.70
2013,08,19,02,33,14.70
2013,08,19,02,34,14.70
2013,08,19,02,35,14.70
2013,08,19,02,36,14.60
2013,08,19,02,37,14.60
2013,08,19,02,38,14.60
2013,08,19,02,39,14.60
2013,08,19,02,40,14.60
2013,08,19,02,41,14.60
2013,08,19,02,42,14.60
2013,08,19,02,43,14.60
2013,08,19,02,44,14.60
2013,08,19,02,45,14.60
2013,08,19,02,46,14.60
2013,08,19,02,47,14.60
2013,08,19,02,48,14.60
2013,08,19,02,49,14.60
2013,08,19,02,50,14.60
2013,08,19,02,51,14.50
2013,08,19,02,52,14.50
2013,08,19,02,53,14.50
2013,08,19,02,54,14.50
2013,08,19,02,55,14.40
2013,08,19,02,56,14.40
2013,08,19,02,57,14.40
2013,08,19,02,58,14.40
2013,08,19,02,59,14.40
2013,08,19,03,00,14.40
2013,08,19,03,01,14.40
2013,08,19,03,02,14.40
2013,08,19,03,03,14.40
2013,08,19,03,04,14.40
2013,08,19,03,05,14.50
2013,08,19,03,06,14.50
2013,08,19,03,07,14.50
2013,08,19,03,08,14.50
2013,08,19,03,09,14.50
2013,08,19,03,10,14.50
2013,08,19,03,11,14.40
2013,08,19,03,12,14.40
2013,08,19,03,13,14.40
2013,08,19,03,14,14.50
2013,08,19,03,15,14.50
2013,08,19,03,16,14.60
2013,08,19,03,17,14.70
2013,08,19,03,18,14.80
2013,08,19,03,19,14.80
2013,08,19,03,20,14.80
2013,08,19,03,21,14.80
2013,08,19,03,22,14.80
2013,08,19,03,23,14.70
2013,08,19,03,24,14.70
2013,08,19,03,25,14.70
2013,08,19,03,26,14.60
2013,08,19,03,27,14.60
2013,08,19,03,28,14.50
2013,08,19,03,29,14.50
2013,08,19,03,30,14.50
2013,08,19,03,31,14.50
2013,08,19,03,32,14.50
2013,08,19,03,33,14.60
2013,08,19,03,34,14.70
2013,08,19,03,35,14.80
2013,08,19,03,36,14.80
2013,08,19,03,37,14.80
2013,08,19,03,38,14.80
2013,08,19,03,39,14.80
2013,08,19,03,40,14.70
2013,08,19,03,41,14.70
2013,08,19,03,42,14.70
2013,08,19,03,43,14.70
2013,08,19,03,44,14.70
2013,08,19,03,45,14.70
2013,08,19,03,46,14.80
2013,08,19,03,47,14.80
2013,08,19,03,48,14.80
2013,08,19,03,49,14.80
2013,08,19,03,50,14.80
2013,08,19,03,51,14.90
2013,08,19,03,52,15.00
2013,08,19,03,53,15.00
2013,08,19,03,54,15.00
2013,08,19,03,55,15.00
2013,08,19,03,56,15.00
2013,08,19,03,57,15.00
2013,08,19,03,58,15.00
2013,08,19,03,59,15.00
2013,08,19,04,00,15.00
2013,08,19,04,01,15.00
2013,08,19,04,02,15.00
2013,08,19,04,03,15.00
2013,08,19,04,04,14.90
2013,08,19,04,05,14.90
2013,08,19,04,06,14.80
2013,08,19,04,07,14.80
2013,08,19,04,08,14.80
2013,08,19,04,09,14.80
2013,08,19,04,10,14.80
2013,08,19,04,11,14.80
2013,08,19,04,12,14.80
2013,08,19,04,13,14.80
2013,08,19,04,14,14.80
2013,08,19,04,15,14.80
2013,08,19,04,16,14.80
2013,08,19,04,17,14.80
2013,08,19,04,18,14.80
2013,08,19,04,19,14.90
2013,08,19,04,20,14.90
2013,08,19,04,21,14.90
2013,08,19,04,22,14.90
2013,08,19,04,23,14.90
2013,08,19,04,24,14.90
2013,08,19,04,25,14.90
2013,08,19,04,26,15.00
2013,08,19,04,27,15.00
2013,08,19,04,28,15.00
2013,08,19,04,29,15.00
2013,08,19,04,30,15.00
2013,08,19,04,31,15.10
2013,08,19,04,32,15.20
2013,08,19,04,33,15.20
2013,08,19,04,34,15.20
2013,08,19,04,35,15.20
2013,08,19,04,36,15.20
2013,08,19,04,37,15.20
2013,08,19,04,38,15.20
2013,08,19,04,39,15.10
2013,08,19,04,40,15.00
2013,08,19,04,41,15.00
2013,08,19,04,42,15.00
2013,08,19,04,43,15.00
2013,08,19,04,44,15.00
2013,08,19,04,45,14.90
2013,08,19,04,46,14.80
2013,08,19,04,47,14.80
2013,08,19,04,48,14.80
2013,08,19,04,49,14.80
2013,08,19,04,50,14.80
2013,08,19,04,51,14.80
2013,08,19,04,52,14.80
2013,08,19,04,53,14.90
2013,08,19,04,54,14.90
2013,08,19,04,55,14.90
2013,08,19,04,56,15.00
2013,08,19,04,57,15.00
2013,08,19,04,58,15.00
2013,08,19,04,59,14.90
2013,08,19,05,00,14.90
2013,08,19,05,01,14.80
2013,08,19,05,02,14.80
2013,08,19,05,03,14.80
2013,08,19,05,04,14.80
2013,08,19,05,05,14.80
2013,08,19,05,06,14.80
2013,08,19,05,07,14.90
2013,08,19,05,08,14.90
2013,08,19,05,09,14.90
2013,08,19,05,10,14.90
2013,08,19,05,11,14.80
2013,08,19,05,12,14.80
2013,08,19,05,13,14.80
2013,08,19,05,14,14.80
2013,08,19,05,15,14.80
2013,08,19,05,16,14.80
2013,08,19,05,17,14.80
2013,08,19,05,18,14.80
2013,08,19,05,19,14.80
2013,08,19,05,20,14.70
2013,08,19,05,21,14.80
2013,08,19,05,22,14.80
2013,08,19,05,23,14.70
2013,08,19,05,24,14.70
2013,08,19,05,25,14.70
2013,08,19,05,26,14.70
2013,08,19,05,27,14.70
2013,08,19,05,28,14.70
2013,08,19,05,29,14.70
2013,08,19,05,30,14.70
2013,08,19,05,31,14.70
2013,08,19,05,32,14.70
2013,08,19,05,33,14.70
2013,08,19,05,34,14.70
2013,08,19,05,35,14.70
2013,08,19,05,36,14.70
2013,08,19,05,37,14.70
2013,08,19,05,38,14.70
2013,08,19,05,39,14.70
2013,08,19,05,40,14.70
2013,08,19,05,41,14.70
2013,08,19,05,42,14.70
2013,08,19,05,43,14.70
2013,08,19,05,44,14.70
2013,08,19,05,45,14.70
2013,08,19,05,46,14.70
2013,08,19,05,47,14.70
2013,08,19,05,48,14.70
2013,08,19,05,49,14.70
2013,08,19,05,50,14.70
2013,08,19,05,51,14.80
2013,08,19,05,52,14.80
2013,08,19,05,53,14.80
2013,08,19,05,54,14.80
2013,08,19,05,55,14.80
2013,08,19,05,56,14.80
2013,08,19,05,57,14.80
2013,08,19,05,58,14.70
2013,08,19,05,59,14.70
2013,08,19,06,00,14.70
2013,08,19,06,01,14.70
2013,08,19,06,02,14.60
2013,08,19,06,03,14.60
2013,08,19,06,04,14.60
2013,08,19,06,05,14.60
2013,08,19,06,06,14.60
2013,08,19,06,07,14.60
2013,08,19,06,08,14.60
2013,08,19,06,09,14.50
2013,08,19,06,10,14.50
2013,08,19,06,11,14.50
2013,08,19,06,12,14.40
2013,08,19,06,13,14.40
2013,08,19,06,14,14.40
2013,08,19,06,15,14.40
2013,08,19,06,16,14.40
2013,08,19,06,17,14.40
2013,08,19,06,18,14.40
2013,08,19,06,19,14.40
2013,08,19,06,20,14.40
2013,08,19,06,21,14.40
2013,08,19,06,22,14.40
2013,08,19,06,23,14.40
2013,08,19,06,24,14.40
2013,08,19,06,25,14.40
2013,08,19,06,26,14.40
2013,08,19,06,27,14.40
2013,08,19,06,28,14.40
2013,08,19,06,29,14.40
2013,08,19,06,30,14.40
2013,08,19,06,31,14.40
2013,08,19,06,32,14.40
2013,08,19,06,33,14.40
2013,08,19,06,34,14.40
2013,08,19,06,35,14.40
2013,08,19,06,36,14.40
2013,08,19,06,37,14.40
2013,08,19,06,38,14.40
2013,08,19,06,39,14.40
2013,08,19,06,40,14.40
2013,08,19,06,41,14.40
2013,08,19,06,42,14.40
2013,08,19,06,43,14.40
2013,08,19,06,44,14.40
2013,08,19,06,45,14.30
2013,08,19,06,46,14.30
2013,08,19,06,47,14.30
2013,08,19,06,48,14.30
2013,08,19,06,49,14.20
2013,08,19,06,50,14.20
2013,08,19,06,51,14.20
2013,08,19,06,52,14.20
2013,08,19,06,53,14.20
2013,08,19,06,54,14.20
2013,08,19,06,55,14.20
2013,08,19,06,56,14.20
2013,08,19,06,57,14.20
2013,08,19,06,58,14.20
2013,08,19,06,59,14.30
2013,08,19,07,00,14.20
2013,08,19,07,01,14.20
2013,08,19,07,02,14.20
2013,08,19,07,03,14.20
2013,08,19,07,04,14.20
2013,08,19,07,05,14.20
2013,08,19,07,06,14.20
2013,08,19,07,07,14.20
2013,08,19,07,08,14.20
2013,08,19,07,09,14.20
2013,08,19,07,10,14.20
2013,08,19,07,11,14.20
2013,08,19,07,12,14.20
2013,08,19,07,13,14.20
2013,08,19,07,14,14.20
2013,08,19,07,15,14.20
2013,08,19,07,16,14.20
2013,08,19,07,17,14.20
2013,08,19,07,18,14.30
2013,08,19,07,19,14.30
2013,08,19,07,20,14.30
2013,08,19,07,21,14.30
2013,08,19,07,22,14.30
2013,08,19,07,23,14.40
2013,08,19,07,24,14.40
2013,08,19,07,25,14.40
2013,08,19,07,26,14.40
2013,08,19,07,27,14.50
2013,08,19,07,28,14.50
2013,08,19,07,29,14.60
2013,08,19,07,30,14.60
2013,08,19,07,31,14.70
2013,08,19,07,32,14.70
2013,08,19,07,33,14.80
2013,08,19,07,34,14.80
2013,08,19,07,35,14.90
2013,08,19,07,36,14.90
2013,08,19,07,37,15.00
2013,08,19,07,38,15.00
2013,08,19,07,39,15.00
2013,08,19,07,40,15.00
2013,08,19,07,41,15.00
2013,08,19,07,42,15.00
2013,08,19,07,43,15.00
2013,08,19,07,44,15.00
2013,08,19,07,45,15.10
2013,08,19,07,46,15.10
2013,08,19,07,47,15.10
2013,08,19,07,48,15.10
2013,08,19,07,49,15.20
2013,08,19,07,50,15.20
2013,08,19,07,51,15.20
2013,08,19,07,52,15.20
2013,08,19,07,53,15.20
2013,08,19,07,54,15.20
2013,08,19,07,55,15.20
2013,08,19,07,56,15.20
2013,08,19,07,57,15.20
2013,08,19,07,58,15.20
2013,08,19,07,59,15.20
2013,08,19,08,00,15.20
2013,08,19,08,01,15.20
2013,08,19,08,02,15.20
2013,08,19,08,03,15.20
2013,08,19,08,04,15.20
2013,08,19,08,05,15.20
2013,08,19,08,06,15.30
2013,08,19,08,07,15.30
2013,08,19,08,08,15.30
2013,08,19,08,09,15.30
2013,08,19,08,10,15.30
2013,08,19,08,11,15.30
2013,08,19,08,12,15.40
2013,08,19,08,13,15.40
2013,08,19,08,14,15.50
2013,08,19,08,15,15.50
2013,08,19,08,16,15.60
2013,08,19,08,17,15.60
2013,08,19,08,18,15.70
2013,08,19,08,19,15.70
2013,08,19,08,20,15.80
2013,08,19,08,21,15.90
2013,08,19,08,22,15.90
2013,08,19,08,23,16.00
2013,08,19,08,24,16.10
2013,08,19,08,25,16.10
2013,08,19,08,26,16.20
2013,08,19,08,27,16.20
2013,08,19,08,28,16.20
2013,08,19,08,29,16.30
2013,08,19,08,30,16.30
2013,08,19,08,31,16.30
2013,08,19,08,32,16.30
2013,08,19,08,33,16.40
2013,08,19,08,34,16.40
2013,08,19,08,35,16.40
2013,08,19,08,36,16.50
2013,08,19,08,37,16.50
2013,08,19,08,38,16.60
2013,08,19,08,39,16.60
2013,08,19,08,40,16.60
2013,08,19,08,41,16.70
2013,08,19,08,42,16.80
2013,08,19,08,43,16.90
2013,08,19,08,44,17.00
2013,08,19,08,45,17.10
2013,08,19,08,46,17.20
2013,08,19,08,47,17.30
2013,08,19,08,48,17.40
2013,08,19,08,49,17.50
2013,08,19,08,50,17.60
2013,08,19,08,51,17.70
2013,08,19,08,52,17.80
2013,08,19,08,53,17.90
2013,08,19,08,54,18.00
2013,08,19,08,55,18.10
2013,08,19,08,56,18.20
2013,08,19,08,57,18.20
2013,08,19,08,58,18.30
2013,08,19,08,59,18.40
2013,08,19,09,00,18.60
2013,08,19,09,01,18.70
2013,08,19,09,02,18.90
2013,08,19,09,03,19.00
2013,08,19,09,04,19.20
2013,08,19,09,05,19.30
2013,08,19,09,06,19.40
2013,08,19,09,07,19.40
2013,08,19,09,08,19.50
2013,08,19,09,09,19.50
2013,08,19,09,10,19.50
2013,08,19,09,11,19.40
2013,08,19,09,12,19.30
2013,08,19,09,13,19.20
2013,08,19,09,14,19.00
2013,08,19,09,15,18.90
2013,08,19,09,16,18.90
2013,08,19,09,17,18.80
2013,08,19,09,18,18.80
2013,08,19,09,19,18.80
2013,08,19,09,20,18.70
2013,08,19,09,21,18.70
2013,08,19,09,22,18.60
2013,08,19,09,23,18.60
2013,08,19,09,24,18.70
2013,08,19,09,25,18.80
2013,08,19,09,26,18.80
2013,08,19,09,27,18.90
2013,08,19,09,28,19.00
2013,08,19,09,29,19.00
2013,08,19,09,30,19.10
2013,08,19,09,31,19.10
2013,08,19,09,32,19.10
2013,08,19,09,33,19.20
2013,08,19,09,34,19.20
2013,08,19,09,35,19.30
2013,08,19,09,36,19.40
2013,08,19,09,37,19.40
2013,08,19,09,38,19.50
2013,08,19,09,39,19.60
2013,08,19,09,40,19.60
2013,08,19,09,41,19.60
2013,08,19,09,42,19.60
2013,08,19,09,43,19.60
2013,08,19,09,44,19.50
2013,08,19,09,45,19.40
2013,08,19,09,46,19.20
2013,08,19,09,47,19.00
2013,08,19,09,48,18.90
2013,08,19,09,49,18.70
2013,08,19,09,50,18.50
2013,08,19,09,51,18.30
2013,08,19,09,52,18.30
2013,08,19,09,53,18.20
2013,08,19,09,54,18.20
2013,08,19,09,55,18.20
2013,08,19,09,56,18.20
2013,08,19,09,57,18.20
2013,08,19,09,58,18.20
2013,08,19,09,59,18.10
2013,08,19,10,00,18.10
2013,08,19,10,01,18.10
2013,08,19,10,02,18.10
2013,08,19,10,03,18.10
2013,08,19,10,04,18.10
2013,08,19,10,05,18.10
2013,08,19,10,06,18.20
2013,08,19,10,07,18.20
2013,08,19,10,08,18.20
2013,08,19,10,09,18.20
2013,08,19,10,10,18.10
2013,08,19,10,11,18.00
2013,08,19,10,12,17.90
2013,08,19,10,13,17.80
2013,08,19,10,14,17.80
2013,08,19,10,15,17.70
2013,08,19,10,16,17.70
2013,08,19,10,17,17.70
2013,08,19,10,18,17.70
2013,08,19,10,19,17.70
2013,08,19,10,20,17.70
2013,08,19,10,21,17.70
2013,08,19,10,22,17.70
2013,08,19,10,23,17.70
2013,08,19,10,24,17.70
2013,08,19,10,25,17.70
2013,08,19,10,26,17.80
2013,08,19,10,27,17.80
2013,08,19,10,28,17.80
2013,08,19,10,29,17.80
2013,08,19,10,30,17.90
2013,08,19,10,31,18.00
2013,08,19,10,32,18.00
2013,08,19,10,33,18.10
2013,08,19,10,34,18.10
2013,08,19,10,35,18.10
2013,08,19,10,36,18.20
2013,08,19,10,37,18.20
2013,08,19,10,38,18.30
2013,08,19,10,39,18.40
2013,08,19,10,40,18.40
2013,08,19,10,41,18.40
2013,08,19,10,42,18.40
2013,08,19,10,43,18.50
2013,08,19,10,44,18.50
2013,08,19,10,45,18.60
2013,08,19,10,46,18.70
2013,08,19,10,47,18.70
2013,08,19,10,48,18.80
2013,08,19,10,49,18.80
2013,08,19,10,50,18.90
2013,08,19,10,51,18.90
2013,08,19,10,52,19.00
2013,08,19,10,53,19.10
2013,08,19,10,54,19.20
2013,08,19,10,55,19.30
2013,08,19,10,56,19.30
2013,08,19,10,57,19.30
2013,08,19,10,58,19.30
2013,08,19,10,59,19.30
2013,08,19,11,00,19.30
2013,08,19,11,01,19.30
2013,08,19,11,02,19.30
2013,08,19,11,03,19.30
2013,08,19,11,04,19.30
2013,08,19,11,05,19.30
2013,08,19,11,06,19.30
2013,08,19,11,07,19.30
2013,08,19,11,08,19.30
2013,08,19,11,09,19.30
2013,08,19,11,10,19.30
2013,08,19,11,11,19.40
2013,08,19,11,12,19.40
2013,08,19,11,13,19.30
2013,08,19,11,14,19.30
2013,08,19,11,15,19.30
2013,08,19,11,16,19.20
2013,08,19,11,17,19.20
2013,08,19,11,18,19.20
2013,08,19,11,19,19.20
2013,08,19,11,20,19.10
2013,08,19,11,21,19.10
2013,08,19,11,22,19.10
2013,08,19,11,23,19.10
2013,08,19,11,24,19.20
2013,08,19,11,25,19.20
2013,08,19,11,26,19.20
2013,08,19,11,27,19.20
2013,08,19,11,28,19.20
2013,08,19,11,29,19.20
2013,08,19,11,30,19.20
2013,08,19,11,31,19.20
2013,08,19,11,32,19.20
2013,08,19,11,33,19.20
2013,08,19,11,34,19.20
2013,08,19,11,35,19.30
2013,08,19,11,36,19.30
2013,08,19,11,37,19.40
2013,08,19,11,38,19.40
2013,08,19,11,39,19.30
2013,08,19,11,40,19.30
2013,08,19,11,41,19.30
2013,08,19,11,42,19.30
2013,08,19,11,43,19.40
2013,08,19,11,44,19.40
2013,08,19,11,45,19.40
2013,08,19,11,46,19.50
2013,08,19,11,47,19.50
2013,08,19,11,48,19.50
2013,08,19,11,49,19.60
2013,08,19,11,50,19.60
2013,08,19,11,51,19.60
2013,08,19,11,52,19.70
2013,08,19,11,53,19.70
2013,08,19,11,54,19.70
2013,08,19,11,55,19.70
2013,08,19,11,56,19.80
2013,08,19,11,57,19.80
2013,08,19,11,58,19.90
2013,08,19,11,59,19.90
2013,08,19,12,00,19.90
2013,08,19,12,01,19.90
2013,08,19,12,02,20.00
2013,08,19,12,03,20.10
2013,08,19,12,04,20.20
2013,08,19,12,05,20.20
2013,08,19,12,06,20.20
2013,08,19,12,07,20.20
2013,08,19,12,08,20.10
2013,08,19,12,09,20.10
2013,08,19,12,10,20.10
2013,08,19,12,11,20.10
2013,08,19,12,12,20.00
2013,08,19,12,13,20.00
2013,08,19,12,14,19.90
2013,08,19,12,15,20.00
2013,08,19,12,16,20.00
2013,08,19,12,17,20.00
2013,08,19,12,18,20.10
2013,08,19,12,19,20.10
2013,08,19,12,20,20.10
2013,08,19,12,21,20.00
2013,08,19,12,22,20.10
2013,08,19,12,23,20.10
2013,08,19,12,24,20.10
2013,08,19,12,25,20.00
2013,08,19,12,26,20.00
2013,08,19,12,27,19.90
2013,08,19,12,28,19.90
2013,08,19,12,29,19.90
2013,08,19,12,30,19.90
2013,08,19,12,31,19.90
2013,08,19,12,32,19.90
2013,08,19,12,33,19.90
2013,08,19,12,34,19.90
2013,08,19,12,35,20.00
2013,08,19,12,36,20.00
2013,08,19,12,37,20.10
2013,08,19,12,38,20.10
2013,08,19,12,39,20.10
2013,08,19,12,40,20.10
2013,08,19,12,41,20.10
2013,08,19,12,42,20.20
2013,08,19,12,43,20.30
2013,08,19,12,44,20.30
2013,08,19,12,45,20.30
2013,08,19,12,46,20.40
2013,08,19,12,47,20.40
2013,08,19,12,48,20.50
2013,08,19,12,49,20.60
2013,08,19,12,50,20.60
2013,08,19,12,51,20.60
2013,08,19,12,52,20.60
2013,08,19,12,53,20.60
2013,08,19,12,54,20.50
2013,08,19,12,55,20.50
2013,08,19,12,56,20.40
2013,08,19,12,57,20.50
2013,08,19,12,58,20.50
2013,08,19,12,59,20.60
2013,08,19,13,00,20.70
2013,08,19,13,01,20.80
2013,08,19,13,02,20.80
2013,08,19,13,03,20.70
2013,08,19,13,04,20.70
2013,08,19,13,05,20.60
2013,08,19,13,06,20.50
2013,08,19,13,07,20.60
2013,08,19,13,08,20.50
2013,08,19,13,09,20.50
2013,08,19,13,10,20.50
2013,08,19,13,11,20.50
2013,08,19,13,12,20.50
2013,08,19,13,13,20.50
2013,08,19,13,14,20.40
2013,08,19,13,15,20.40
2013,08,19,13,16,20.50
2013,08,19,13,17,20.60
2013,08,19,13,18,20.60
2013,08,19,13,19,20.60
2013,08,19,13,20,20.60
2013,08,19,13,21,20.60
2013,08,19,13,22,20.70
2013,08,19,13,23,20.70
2013,08,19,13,24,20.70
2013,08,19,13,25,20.70
2013,08,19,13,26,20.80
2013,08,19,13,27,21.00
2013,08,19,13,28,21.10
2013,08,19,13,29,21.20
2013,08,19,13,30,21.30
2013,08,19,13,31,21.20
2013,08,19,13,32,21.10
2013,08,19,13,33,21.10
2013,08,19,13,34,21.00
2013,08,19,13,35,20.90
2013,08,19,13,36,20.90
2013,08,19,13,37,20.80
2013,08,19,13,38,20.70
2013,08,19,13,39,20.70
2013,08,19,13,40,20.60
2013,08,19,13,41,20.50
2013,08,19,13,42,20.50
2013,08,19,13,43,20.40
2013,08,19,13,44,20.30
2013,08,19,13,45,20.20
2013,08,19,13,46,20.10
2013,08,19,13,47,20.10
2013,08,19,13,48,20.20
2013,08,19,13,49,20.30
2013,08,19,13,50,20.40
2013,08,19,13,51,20.40
2013,08,19,13,52,20.50
2013,08,19,13,53,20.40
2013,08,19,13,54,20.30
2013,08,19,13,55,20.20
2013,08,19,13,56,20.20
2013,08,19,13,57,20.20
2013,08,19,13,58,20.20
2013,08,19,13,59,20.20
2013,08,19,14,00,20.20
2013,08,19,14,01,20.20
2013,08,19,14,02,20.20
2013,08,19,14,03,20.20
2013,08,19,14,04,20.20
2013,08,19,14,05,20.30
2013,08,19,14,06,20.20
2013,08,19,14,07,20.00
2013,08,19,14,08,19.90
2013,08,19,14,09,19.90
2013,08,19,14,10,20.00
2013,08,19,14,11,20.10
2013,08,19,14,12,20.10
2013,08,19,14,13,20.10
2013,08,19,14,14,20.10
2013,08,19,14,15,20.10
2013,08,19,14,16,20.10
2013,08,19,14,17,20.20
2013,08,19,14,18,20.20
2013,08,19,14,19,20.20
2013,08,19,14,20,20.30
2013,08,19,14,21,20.40
2013,08,19,14,22,20.40
2013,08,19,14,23,20.30
2013,08,19,14,24,20.20
2013,08,19,14,25,20.30
2013,08,19,14,26,20.30
2013,08,19,14,27,20.20
2013,08,19,14,28,20.10
2013,08,19,14,29,20.10
2013,08,19,14,30,20.10
2013,08,19,14,31,20.10
2013,08,19,14,32,20.10
2013,08,19,14,33,20.10
2013,08,19,14,34,20.00
2013,08,19,14,35,20.10
2013,08,19,14,36,20.20
2013,08,19,14,37,20.20
2013,08,19,14,38,20.30
2013,08,19,14,39,20.40
2013,08,19,14,40,20.50
2013,08,19,14,41,20.50
2013,08,19,14,42,20.60
2013,08,19,14,43,20.60
2013,08,19,14,44,20.70
2013,08,19,14,45,20.80
2013,08,19,14,46,20.90
2013,08,19,14,47,21.00
2013,08,19,14,48,21.10
2013,08,19,14,49,21.20
2013,08,19,14,50,21.20
2013,08,19,14,51,21.20
2013,08,19,14,52,21.30
2013,08,19,14,53,21.20
2013,08,19,14,54,21.20
2013,08,19,14,55,21.30
2013,08,19,14,56,21.40
2013,08,19,14,57,21.40
2013,08,19,14,58,21.40
2013,08,19,14,59,21.50
2013,08,19,15,00,21.60
2013,08,19,15,01,21.70
2013,08,19,15,02,21.60
2013,08,19,15,03,21.50
2013,08,19,15,04,21.60
2013,08,19,15,05,21.60
2013,08,19,15,06,21.50
2013,08,19,15,07,21.50
2013,08,19,15,08,21.40
2013,08,19,15,09,21.50
2013,08,19,15,10,21.50
2013,08,19,15,11,21.50
2013,08,19,15,12,21.60
2013,08,19,15,13,21.50
2013,08,19,15,14,21.50
2013,08,19,15,15,21.50
2013,08,19,15,16,21.50
2013,08,19,15,17,21.40
2013,08,19,15,18,21.40
2013,08,19,15,19,21.40
2013,08,19,15,20,21.40
2013,08,19,15,21,21.30
2013,08,19,15,22,21.30
2013,08,19,15,23,21.30
2013,08,19,15,24,21.20
2013,08,19,15,25,21.30
2013,08,19,15,26,21.30
2013,08,19,15,27,21.40
2013,08,19,15,28,21.50
2013,08,19,15,29,21.50
2013,08,19,15,30,21.60
2013,08,19,15,31,21.60
2013,08,19,15,32,21.60
2013,08,19,15,33,21.50
2013,08,19,15,34,21.50
2013,08,19,15,35,21.50
2013,08,19,15,36,21.40
2013,08,19,15,37,21.40
2013,08,19,15,38,21.40
2013,08,19,15,39,21.40
2013,08,19,15,40,21.40
2013,08,19,15,41,21.40
2013,08,19,15,42,21.40
2013,08,19,15,43,21.30
2013,08,19,15,44,21.30
2013,08,19,15,45,21.30
2013,08,19,15,46,21.30
2013,08,19,15,47,21.30
2013,08,19,15,48,21.30
2013,08,19,15,49,21.30
2013,08,19,15,50,21.30
2013,08,19,15,51,21.30
2013,08,19,15,52,21.30
2013,08,19,15,53,21.30
2013,08,19,15,54,21.30
2013,08,19,15,55,21.20
2013,08,19,15,56,21.10
2013,08,19,15,57,21.10
2013,08,19,15,58,21.10
2013,08,19,15,59,21.10
2013,08,19,16,00,21.10
2013,08,19,16,01,21.10
2013,08,19,16,02,21.00
2013,08,19,16,03,20.90
2013,08,19,16,04,20.80
2013,08,19,16,05,20.80
2013,08,19,16,06,20.80
2013,08,19,16,07,20.90
2013,08,19,16,08,21.00
2013,08,19,16,09,20.90
2013,08,19,16,10,20.90
2013,08,19,16,11,20.80
2013,08,19,16,12,20.80
2013,08,19,16,13,20.80
2013,08,19,16,14,20.80
2013,08,19,16,15,20.80
2013,08,19,16,16,20.80
2013,08,19,16,17,20.80
2013,08,19,16,18,20.80
2013,08,19,16,19,20.80
2013,08,19,16,20,20.70
2013,08,19,16,21,20.70
2013,08,19,16,22,20.70
2013,08,19,16,23,20.70
2013,08,19,16,24,20.70
2013,08,19,16,25,20.70
2013,08,19,16,26,20.70
2013,08,19,16,27,20.70
2013,08,19,16,28,20.60
2013,08,19,16,29,20.60
2013,08,19,16,30,20.60
2013,08,19,16,31,20.70
2013,08,19,16,32,20.80
2013,08,19,16,33,20.80
2013,08,19,16,34,20.90
2013,08,19,16,35,21.00
2013,08,19,16,36,21.00
2013,08,19,16,37,20.90
2013,08,19,16,38,20.80
2013,08,19,16,39,20.80
2013,08,19,16,40,20.70
2013,08,19,16,41,20.70
2013,08,19,16,42,20.70
2013,08,19,16,43,20.70
2013,08,19,16,44,20.70
2013,08,19,16,45,20.70
2013,08,19,16,46,20.80
2013,08,19,16,47,20.80
2013,08,19,16,48,20.70
2013,08,19,16,49,20.70
2013,08,19,16,50,20.70
2013,08,19,16,51,20.60
2013,08,19,16,52,20.70
2013,08,19,16,53,20.80
2013,08,19,16,54,20.80
2013,08,19,16,55,20.90
2013,08,19,16,56,20.90
2013,08,19,16,57,20.90
2013,08,19,16,58,20.80
2013,08,19,16,59,20.70
2013,08,19,17,00,20.70
2013,08,19,17,01,20.70
2013,08,19,17,02,20.70
2013,08,19,17,03,20.70
2013,08,19,17,04,20.80
2013,08,19,17,05,20.80
2013,08,19,17,06,20.80
2013,08,19,17,07,20.90
2013,08,19,17,08,20.90
2013,08,19,17,09,20.90
2013,08,19,17,10,20.90
2013,08,19,17,11,20.90
2013,08,19,17,12,21.00
2013,08,19,17,13,21.00
2013,08,19,17,14,21.00
2013,08,19,17,15,21.00
2013,08,19,17,16,20.90
2013,08,19,17,17,20.80
2013,08,19,17,18,20.90
2013,08,19,17,19,21.00